Flag for U.S.A. Weather past 2 weeks in Ontario, California, U.S.A.

Now
70 °F

Clear.


Feels Like: 75 °F
Forecast: 57 / 90 °F
Wind: 10 mph from West

Location: Ontario International Airport

Current Time: Apr 27, 2015 at 9:43:29 PM

Latest Report: Apr 27, 2015 at 8:53 PM


Visibility: 10 mi

Pressure: 29.91 "Hg

Humidity: 26%

Dew point: 33 °F

Location of OntarioLocation

Historic Weather in Ontario — Graph

°F

Ontario temperature yesterday

Maximum temperature yesterday: 74 °F (at 1:53 PM)
Minimum temperature yesterday: 50 °F (at 6:00 AM)
Average temperature yesterday: 62 °F

Past Weeks' High & Low Weather Summary

 TemperatureHumidityPressure
High86 °F (Apr 27, 3:53 PM)97% (Apr 25, 6:04 PM)30.09 "Hg (Apr 25, 6:04 PM)
Low50 °F (Apr 26, 6:00 AM)6% (Apr 15, 10:53 PM)29.78 "Hg (Apr 20, 3:53 PM)
Average64 °F52%29.93 "Hg
* Reported Apr 12 7:53 PM — Apr 27 7:53 PM, Ontario, Weather by CustomWeather, © 2015

Note: Actual official high and low records may vary slightly from our data, if they occured in-between our weather recording intervals... More about our weather records

Advertising

Ontario weather history for previous 24 hours

 ConditionsComfort  
Time TempWeatherWind HumidityBarometerVisibility
7:53 PM
Mon, Apr 27
73 °FSunny.12 mph21%29.89 "Hg10 mi
6:53 PM78 °FSunny.12 mph16%29.86 "Hg10 mi
5:53 PM82 °FSunny.16 mph16%29.84 "Hg10 mi
4:53 PM86 °FSunny.9 mph12%29.82 "Hg10 mi
3:53 PM86 °FSunny.8 mph11%29.83 "Hg10 mi
2:53 PM85 °FSunny.7 mph12%29.86 "Hg10 mi
1:53 PM83 °FPassing clouds.7 mph12%29.89 "Hg10 mi
12:53 PM83 °FPassing clouds.8 mph13%29.89 "Hg10 mi
11:53 AM82 °FSunny.18 mph9%29.92 "Hg10 mi
10:53 AM79 °FPassing clouds.23 mph10%29.92 "Hg10 mi
9:53 AM77 °FPassing clouds.18 mph12%29.93 "Hg10 mi
8:53 AM75 °FPassing clouds.28 mph11%29.92 "Hg10 mi
7:53 AM69 °FPassing clouds.7 mph31%29.92 "Hg10 mi
6:53 AM65 °FPassing clouds.9 mph34%29.90 "Hg10 mi
5:53 AM64 °FPassing clouds.15 mph34%29.88 "Hg10 mi
4:53 AM71 °FPassing clouds.29 mph16%29.85 "Hg10 mi
3:53 AM70 °FPassing clouds.23 mph21%29.85 "Hg10 mi
2:53 AM60 °FPassing clouds.6 mph53%29.88 "Hg10 mi
1:53 AM57 °FPassing clouds.No wind67%29.89 "Hg10 mi
12:53 AM59 °FPassing clouds.No wind60%29.91 "Hg10 mi
11:53 PM
Sun, Apr 26
60 °FPassing clouds.No wind56%29.92 "Hg10 mi
10:53 PM61 °FPassing clouds.6 mph54%29.92 "Hg10 mi
9:53 PM61 °FPassing clouds.No wind52%29.92 "Hg10 mi
Weather by CustomWeather, © 2015

See weather overviewHow to use our weather pages